Regional Weather Roundup
Issued by NWS Sioux Falls, SD

Home | Current Version | Previous Version | Text Only | Print | Product List | Glossary On
Versions: 1 2 3 4 5 6 7 8 9 10 11 12 13 14 15 16 17 18 19 20 21 22 23 24 25 26 27 28 29 30 31 32 33 34 35 36 37 38 39 40 41 42 43 44 45 46 47 48 49 50
000
ASUS43 KFSD 020310
RWRFSD

WEATHER ROUNDUP FOR SE SOUTH DAKOTA/SW MINNESOTA/NW IOWA
NATIONAL WEATHER SERVICE SIOUX FALLS SD
1000 PM CDT SUN MAY 01 2016

NOTE: "FAIR" INDICATES FEW OR NO CLOUDS BELOW 12,000 FEET WITH NO
SIGNIFICANT WEATHER AND OR OBSTRUCTIONS TO VISIBILITY.


SDZ038>040-050-052>070-020400-
SOUTHEAST SOUTH DAKOTA

CITY           SKY/WX    TMP DP  RH WIND       PRES   REMARKS
CHAMBERLAIN    CLEAR     49  40  72 CALM      30.19S
HURON          CLEAR     48  37  65 CALM      30.17R
MADISON        FAIR      45  39  81 N7        30.16S
MITCHELL       CLEAR     52  40  63 CALM      30.18R
SIOUX FALLS    CLEAR     46  35  65 CALM      30.16R
WINNER         FAIR      48  34  58 CALM      30.21R
YANKTON        CLEAR     46  39  76 W3        30.17R
$$

MNZ071-072-080-081-089-090-097-098-020400-
SOUTHWEST MINNESOTA

CITY           SKY/WX    TMP DP  RH WIND       PRES   REMARKS
FAIRMONT       PTCLDY    48  37  66 N7        30.11S
JACKSON        CLEAR     46  37  71 CALM      30.13S
LUVERNE        CLEAR     43  36  75 NW5       30.15R
MARSHALL       CLEAR     52  32  46 E3        30.14S
MONTEVIDEO     CLEAR     48  30  49 CALM      30.15S
PIPESTONE      CLEAR     48  34  57 N3        30.14S
REDWOOD FALLS  CLEAR     54  31  41 CALM      30.13S
TRACY          CLEAR     50  35  56 CALM      30.14S
WINDOM         CLEAR     46  39  76 CALM      30.13S
WORTHINGTON    CLEAR     46  39  76 W3        30.15R
$$

IAZ001>003-012>014-020>022-031-032-NEZ013-014-SDZ071-020400-
NORTHWEST IOWA

CITY           SKY/WX    TMP DP  RH WIND       PRES   REMARKS
CHEROKEE       MOCLDY    44  41  89 CALM      30.15R
DENISON        CLOUDY    48 N/A N/A CALM      30.13R
ESTHERVILLE    CLEAR     46  40  79 N9        30.11S
LE MARS        PTCLDY    46  43  87 CALM      30.17R
ORANGE CITY    CLEAR     46  41  81 W3        30.16R
SHELDON        CLEAR     43  41  93 CALM      30.14R
SIOUX CITY     MOCLDY    48  41  76 NW5       30.17R
SPENCER        CLEAR     45  38  76 NW8       30.13R
STORM LAKE     CLOUDY    50  43  76 NW7       30.14R
$$

ABBREVIATIONS USED IN REMARKS
   TC - TEMPERATURE IN CELSIUS
  WCI - WIND CHILL INDEX
   HX - HEAT INDEX
  VSB - VISIBILITY





USA.gov is the U.S. government's official web portal to all federal, state and local government web resources and services.